Change the Weather History Date:

Friday, September 20, 2013

  Actual Average Record
Temperature  
Mean Temperature 73 °F -  
Max Temperature 77 °F 85 °F 99 °F (2005)
Min Temperature 71 °F 66 °F 60 °F (2003)
Cooling Degree Days 8    
Growing Degree Days 23 (Base 50)    
Moisture  
Dew Point 70 °F    
Average Humidity 87    
Maximum Humidity 94    
Minimum Humidity 73    
Precipitation  
Precipitation 1.34 in - - ()
Sea Level Pressure  
Sea Level Pressure 29.88 in    
Wind  
Wind Speed 8 mph (NE)    
Max Wind Speed 16 mph    
Max Gust Speed 22 mph    
Visibility 7 miles    
Events Rain    
Averages and records for this station are not official NWS values.
T = Trace of Precipitation, MM = Missing Value Source: NWS Daily Summary

Daily Weather History Graph

Daily Weather History Graph

Search for Another Location

Airport or City:

Trip Planner

Search our weather history database for the weather conditions in past years. The results will help you decide how hot, cold, wet, or windy it might be!

Date:

Astronomy

Sep. 20, 2013 Rise Set
Actual Time 7:14 AM CDT 7:26 PM CDT
Civil Twilight 6:49 AM CDT 7:51 PM CDT
Nautical Twilight 6:21 AM CDT 8:19 PM CDT
Astronomical Twilight 5:51 AM CDT 8:48 PM CDT
Moon 8:08 PM CDT (9/20) 8:23 AM CDT (9/20)
Length of Visible Light 13h 01m
Length of Day
12h 11m
Full, 98% of the Moon is Illuminated
Sep 20
Full
Sep 26
Last Quarter
Oct 4
New
Oct 11
First Quarter
Oct 18
Full

Hourly Weather History & Observations

Time (CDT) Temp. Dew Point Humidity Pressure Visibility Wind Dir Wind Speed Gust Speed Precip Events Conditions
12:33 AM 75.2 °F 71.6 °F 89% 29.93 in 8.0 mi ENE 4.6 mph - 0.04 in Rain Light Rain
12:53 AM 75.0 °F 72.0 °F 90% 29.92 in 5.0 mi ESE 9.2 mph - 0.07 in Rain Rain
1:00 AM 73.4 °F 71.6 °F 94% 29.92 in 2.0 mi East 10.4 mph - 0.22 in Rain Heavy Rain
1:17 AM 73.4 °F 71.6 °F 94% 29.92 in 6.0 mi ENE 11.5 mph - 0.35 in Rain Light Rain
1:53 AM 73.0 °F 70.0 °F 90% 29.89 in 10.0 mi ENE 9.2 mph - N/A Rain Light Rain
2:53 AM 73.0 °F 71.1 °F 93% 29.88 in 9.0 mi ENE 8.1 mph - 0.05 in Rain Light Rain
3:53 AM 73.9 °F 71.1 °F 91% 29.86 in 9.0 mi NE 4.6 mph - 0.07 in Rain Light Rain
4:53 AM 73.9 °F 71.1 °F 91% 29.86 in 4.0 mi ENE 3.5 mph - 0.11 in Rain Heavy Rain
5:53 AM 73.9 °F 71.1 °F 91% 29.83 in 5.0 mi ENE 10.4 mph - 0.19 in Rain Light Rain
6:32 AM 73.4 °F 71.6 °F 94% 29.87 in 5.0 mi East 6.9 mph - 0.08 in Rain Rain
6:53 AM 73.9 °F 72.0 °F 93% 29.85 in 2.5 mi East 6.9 mph - 0.18 in Rain Heavy Rain
7:30 AM 73.4 °F 71.6 °F 94% 29.85 in 3.0 mi NNE 6.9 mph - 0.42 in Rain Heavy Rain
7:53 AM 73.9 °F 71.1 °F 91% 29.84 in 4.0 mi NE 4.6 mph - 0.52 in Rain Rain
8:25 AM 73.4 °F 71.6 °F 94% 29.86 in 7.0 mi NNE 5.8 mph - 0.02 in Rain Light Rain
8:53 AM 75.0 °F 72.0 °F 90% 29.85 in 7.0 mi NNE 11.5 mph - 0.03 in Rain Light Rain
9:12 AM 75.2 °F 71.6 °F 89% 29.87 in 1.8 mi NE 6.9 mph - 0.00 in Rain Light Rain
9:41 AM 73.4 °F 71.6 °F 94% 29.87 in 2.0 mi NE 15.0 mph 21.9 mph 0.01 in Rain Light Rain
9:53 AM 73.9 °F 71.1 °F 91% 29.86 in 2.0 mi NE 9.2 mph - 0.01 in Rain Light Rain
9:55 AM 75.2 °F 71.6 °F 89% 29.88 in 2.0 mi NNE 11.5 mph - 0.00 in Rain Light Rain
10:08 AM 73.4 °F 71.6 °F 94% 29.88 in 4.0 mi NE 12.7 mph 20.7 mph 0.00 in   Overcast
10:24 AM 75.2 °F 71.6 °F 89% 29.89 in 7.0 mi NE 11.5 mph - 0.00 in   Overcast
10:53 AM 75.0 °F 70.0 °F 84% 29.88 in 8.0 mi NNE 10.4 mph - 0.00 in   Overcast
11:41 AM 73.4 °F 69.8 °F 88% 29.89 in 8.0 mi NE 11.5 mph 18.4 mph 0.00 in Rain Light Rain
11:53 AM 73.9 °F 70.0 °F 87% 29.87 in 7.0 mi NE 12.7 mph 18.4 mph 0.01 in Rain Light Rain
12:30 PM 73.4 °F 71.6 °F 94% 29.89 in 2.0 mi NNE 6.9 mph - 0.05 in Rain Light Rain
12:53 PM 75.0 °F 71.1 °F 87% 29.87 in 2.5 mi NE 8.1 mph - 0.07 in Rain Light Rain
1:10 PM 75.2 °F 71.6 °F 89% 29.89 in 4.0 mi NE 5.8 mph - 0.01 in Rain Light Rain
1:53 PM 75.9 °F 71.1 °F 85% 29.86 in 6.0 mi NE 8.1 mph - 0.02 in Rain Light Rain
2:53 PM 75.9 °F 71.1 °F 85% 29.84 in 9.0 mi NNE 6.9 mph - 0.00 in   Overcast
3:53 PM 75.9 °F 69.1 °F 79% 29.85 in 10.0 mi NNE 10.4 mph - 0.00 in   Overcast
4:53 PM 75.0 °F 66.9 °F 76% 29.86 in 10.0 mi North 10.4 mph - 0.00 in Rain Light Rain
5:22 PM 75.2 °F 68.0 °F 78% 29.89 in 10.0 mi North 6.9 mph - 0.00 in Rain Light Rain
5:53 PM 75.0 °F 69.1 °F 82% 29.87 in 10.0 mi North 5.8 mph - 0.01 in Rain Light Rain
6:53 PM 73.9 °F 69.1 °F 85% 29.87 in 10.0 mi NNW 5.8 mph - 0.00 in   Overcast
7:41 PM 73.4 °F 69.8 °F 88% 29.88 in 10.0 mi North 4.6 mph - N/A   Overcast
7:53 PM 73.9 °F 69.1 °F 85% 29.87 in 10.0 mi North 9.2 mph - 0.00 in   Overcast
8:00 PM 73.4 °F 69.8 °F 88% 29.88 in 10.0 mi North 6.9 mph - N/A   Overcast
8:09 PM 73.4 °F 69.8 °F 88% 29.88 in 10.0 mi North 10.4 mph - N/A   Overcast
8:53 PM 73.9 °F 68.0 °F 82% 29.86 in 10.0 mi NE 9.2 mph - N/A   Overcast
9:00 PM 73.4 °F 68.0 °F 83% 29.88 in 10.0 mi NE 10.4 mph - N/A   Overcast
9:41 PM 73.4 °F 68.0 °F 83% 29.89 in 10.0 mi North 15.0 mph 19.6 mph N/A   Overcast
9:53 PM 73.9 °F 66.9 °F 79% 29.88 in 10.0 mi NNE 12.7 mph - N/A   Overcast
10:35 PM 73.4 °F 66.2 °F 78% 29.91 in 10.0 mi North 16.1 mph - N/A   Mostly Cloudy
10:51 PM 73.4 °F 66.2 °F 78% 29.92 in 10.0 mi North 10.4 mph - N/A   Mostly Cloudy
10:53 PM 73.0 °F 66.0 °F 79% 29.90 in 10.0 mi North 13.8 mph - N/A   Mostly Cloudy
11:06 PM 71.6 °F 64.4 °F 78% 29.92 in 10.0 mi NNE 10.4 mph - N/A   Mostly Cloudy
11:53 PM 71.1 °F 62.1 °F 73% 29.91 in 10.0 mi North 11.5 mph 18.4 mph N/A   Mostly Cloudy